CZ-6A DEB

Satellite information

Favourite Embed

Satellite Type and Status

DEBRISIN ORBIT

Key statistics

Satellite CZ-6A DEB at a glance.

Uptime

1129

Days in orbit

Revolutions

≈ 14.1

Per day

Orbit

SSO

Sun Synchronous Orbit

Inclination

98.8

Latest

Satellite identification and parameters

Extended collection of information and parameters for CZ-6A DEB.

Object identification

Identified? True

Debris? True

Object name: CZ-6A DEB

International designator: 2022-151ZW

Object number (NORAD): 55874

Object ID (CCSDS): 55874

Country: PEOPLES REPUBLIC OF CHINA (PRC)

Current information (Y/N): Y

RCS size: SMALL

Orbital parameters

Period: 101.891 minutes

Inclination: 98.8245 deg

SMA: 7226.332 km

Apoapsis: 894.848 km

Periapsis: 801.546 km

RAAN: 337.886 deg

Eccentricy: 0.0064557

Argument of periapsis: 154.7344 deg

Mean anomaly: 205.701 deg

Mean motion: 14.13272572 rev/day

Mean motion (dot): 0.0000488 rev/day2

B* drag term: 0.002574 1/REarth

Two-line elements (TLE)

Creation date: Dec. 12, 2025, 7:26 a.m.

Reference frame: TEME

Reference center: EARTH

Epoch: Dec. 11, 2025, 10:01 p.m. UTC

TLE line 0: 0 CZ-6A DEB

TLE line 1: 1 55874U 22151ZW 25345.91752792 .00004880 00000-0 25740-2 0 9991

TLE line 2: 2 55874 98.8245 337.8860 0064557 154.7344 205.7010 14.13272572146344

Live tracking on map

Real-time ground track for satellite CZ-6A DEB.

In-orbit conjunctions

A list of the most updated potential collisions computed for object CZ-6A DEB.

Target Orbit TCA Probability of collision Miss distance Type
EXPLORER 22 LEO 2025-03-25 19:42:00 0.0001857492 299.0 (m) PAYLOAD
METEOR 1-10 LEO 2024-08-28 16:34:10 0.0001099463 214.0 (m) PAYLOAD

Associated space launch

Chinese satellite reported for atmospheric/ocean/environmental/spatial parameter research purposes, details TBD.

CZ-6A DEB was lifted into orbit during the mission ‘Long March 6A | Yunhai 3’, on board a Long March 6A space rocket.

The launch took place on Nov. 11, 2022, 10:52 p.m. from Launch Complex 9A.

For more information about the launch, click the button.

Launch to space Long March 6A | Yunhai 3
Long March 6A | Yunhai 3

Agency: N/A

Status: Launch Successful

Launch date: Nov. 11, 2022, 10:52 p.m. UTC

Rocket: Long March 6A

Launch pad: Launch Complex 9A

Location: Taiyuan Satellite Launch Center, People's Republic of China

...

Latest news about this satellite

There are no fresh news available about this satellite. Check back as we update our databases every day.


Newsletter sign-up

Weekly statistics, charts and insights to help you stay on top of the space industry.